Location: Bothell
(47.7630°N, 122.2040°W)
Time: 16:04:46
(UTC-07:00)

Amateur Radio Satellites - All Passes

Search period start: 25 June 2016 15:34
Search period end: 26 June 2016 15:34
Location: Bothell, 47.7630°N, 122.2040°W

Satellite Date Start Highest point End Downlink Frequencies (MHz)
Time Altitude Azimuth
AIST 2 25 Jun 15:37:25 15:41:08 32° 242° (WSW) 15:44:50 435.215
ITAMSAT 1 25 Jun 15:47:24 15:52:17 40° 262° (W) 15:57:13 435.822/435.867
MOZHAYETS 4 25 Jun 15:55:02 15:57:43 15° 88° (E) 16:00:24
SWISSCUBE 25 Jun 15:55:55 16:00:44 71° 288° (WNW) 16:05:29 437.505
Cosmos 2504 25 Jun 16:00:02 16:07:59 56° 287° (WNW) 16:16:32 435.465 / 435.565
ISS 25 Jun 16:08:56 16:12:11 62° 209° (SSW) 16:15:25 145.825
ITUPSAT 1 25 Jun 16:20:30 16:25:09 48° 291° (WNW) 16:29:45 437.325
BEESAT 25 Jun 16:21:48 16:26:23 46° 291° (WNW) 16:30:57 436.000
CUTE-I 25 Jun 16:28:26 16:29:03 10° 49° (NE) 16:29:40 437.470
KKS-1 25 Jun 16:28:42 16:32:42 32° 97° (E) 16:36:41 437.445
SO-50 25 Jun 16:37:57 16:41:58 26° 115° (ESE) 16:46:00 436.795
YUBILEINY 25 Jun 16:39:57 16:44:44 15° 311° (NW) 16:49:34 435.215
AO-7 25 Jun 16:42:07 16:50:02 47° 260° (W) 16:58:03 29.400- 29.500
HORYU 2 25 Jun 16:55:10 16:59:34 74° 73° (ENE) 17:04:02 437.375
NOAA 18 25 Jun 16:56:06 16:59:57 20° 56° (NE) 17:03:49 137.9125
NOAA 15 25 Jun 17:03:33 17:07:49 25° 61° (ENE) 17:12:04 137.62
RS-15 25 Jun 17:07:53 17:18:36 36° 352° (N) 17:29:40 29.354- 29.394
STARS 25 Jun 17:10:00 17:14:13 43° 99° (E) 17:18:25 437.465
AIST 1 25 Jun 17:13:11 17:16:38 23° 88° (E) 17:20:03
CUBESAT XI-V 25 Jun 17:14:07 17:15:52 12° 86° (E) 17:17:37 437.345
Cubesat XI-IV 25 Jun 17:28:08 17:32:41 29° 62° (ENE) 17:37:15 437.490
MOZHAYETS 4 25 Jun 17:30:44 17:35:24 70° 287° (WNW) 17:40:00
BRITE-PL 25 Jun 17:31:23 17:35:56 34° 68° (ENE) 17:40:11 437.365/2234.400
SWISSCUBE 25 Jun 17:36:05 17:37:40 12° 306° (NW) 17:39:15 437.505
ISS 25 Jun 17:46:55 17:48:05 11° 226° (SW) 17:49:14 145.825
HO-68 25 Jun 17:53:47 17:57:31 15° 44° (NE) 18:01:13 435.675
Cosmos 2504 25 Jun 17:59:29 18:03:47 15° 312° (NW) 18:08:12 435.465 / 435.565
CUTE-I 25 Jun 18:02:45 18:07:57 54° 69° (ENE) 18:13:12 437.470
DOVE 4 25 Jun 18:03:42 18:06:08 15° 61° (ENE) 18:08:32 437.250
KKS-1 25 Jun 18:05:20 18:09:14 30° 294° (WNW) 18:13:06 437.445
LilacSat-2 25 Jun 18:16:38 18:20:20 58° 73° (ENE) 18:24:05 437.200
SO-50 25 Jun 18:17:23 18:22:12 55° 314° (NW) 18:27:00 436.795
DANDE 25 Jun 18:21:50 18:25:13 15° 52° (NE) 18:28:07 436.750
GOMX 1 25 Jun 18:22:10 18:26:37 45° 71° (ENE) 18:30:48 467.674
CUSAT 1 25 Jun 18:30:01 18:33:43 25° 64° (ENE) 18:36:41 437.405
HORYU 2 25 Jun 18:34:32 18:36:40 13° 271° (W) 18:38:48 437.375
NOAA 18 25 Jun 18:34:33 18:40:01 77° 255° (WSW) 18:45:33 137.9125
GONETS M04 25 Jun 18:38:08 18:46:09 44° 86° (E) 18:54:10
NOAA 15 25 Jun 18:42:05 18:47:16 55° 259° (W) 18:52:29 137.62
STARS 25 Jun 18:46:53 18:50:20 23° 297° (WNW) 18:53:48 437.465
CUBESAT XI-V 25 Jun 18:49:14 18:53:55 85° 285° (WNW) 18:58:32 437.345
AIST 1 25 Jun 18:50:02 18:54:02 36° 286° (WNW) 18:58:03
Cosmos 2499 25 Jun 18:53:42 19:01:05 37° 83° (E) 19:08:50 435.465 / 435.565
Cubesat XI-IV 25 Jun 19:07:24 19:12:33 47° 261° (W) 19:17:44 437.490
BRITE-PL 25 Jun 19:09:47 19:14:25 33° 264° (W) 19:18:44 437.365/2234.400
MOZHAYETS 4 25 Jun 19:10:41 19:11:42 11° 306° (NW) 19:12:42
AAUSAT CUBESAT 2 25 Jun 19:21:19 19:22:34 11° 57° (ENE) 19:23:50 437.432
CINEMA 3 25 Jun 19:22:05 19:25:33 26° 66° (ENE) 19:29:02 145.822/145.860
RS-15 25 Jun 19:23:31 19:35:03 44° 26° (NNE) 19:46:42 29.354- 29.394
CANX-2 25 Jun 19:34:30 19:38:25 36° 68° (ENE) 19:42:22 2200.000
HO-68 25 Jun 19:36:50 19:43:47 57° 65° (ENE) 19:50:47 435.675
DOVE 4 25 Jun 19:39:05 19:43:25 66° 258° (WSW) 19:47:37 437.250
CUBEBUG 2 25 Jun 19:42:23 19:44:47 15° 60° (ENE) 19:47:14 437.445
CUTE-I 25 Jun 19:44:02 19:48:19 24° 268° (W) 19:52:39 437.470
COMPASS 1 25 Jun 19:49:35 19:53:01 25° 65° (ENE) 19:56:28 437.405
LilacSat-2 25 Jun 19:53:22 19:55:02 12° 271° (W) 19:56:43 437.200
CUTE 1.7 + AOD 2 25 Jun 19:54:53 19:59:01 50° 71° (ENE) 20:03:12 437.475
SO-50 25 Jun 20:00:35 20:03:43 17° 335° (NNW) 20:06:51 436.795
GOMX 1 25 Jun 20:01:22 20:04:54 21° 267° (W) 20:08:19 467.674
DANDE 25 Jun 20:03:30 20:09:21 85° 260° (W) 20:13:37 436.750
M-CUBED/EXP-1 PRIME 25 Jun 20:04:17 20:07:03 26° 62° (ENE) 20:09:51 437.505
SEEDS 25 Jun 20:04:54 20:08:59 47° 71° (ENE) 20:13:05 437.485
CUSAT 1 25 Jun 20:12:18 20:15:41 23° 274° (W) 20:18:28 437.405
NOAA 18 25 Jun 20:19:44 20:21:36 12° 274° (W) 20:23:29 137.9125
ZACube-1 25 Jun 20:22:21 20:25:15 18° 62° (ENE) 20:28:12 437.345
CUBESAT XI-V 25 Jun 20:28:33 20:30:34 13° 304° (WNW) 20:32:35 437.345
STRAND 1 25 Jun 20:28:38 20:33:48 68° 103° (ESE) 20:38:55 437.568
GONETS M04 25 Jun 20:34:33 20:42:54 49° 289° (WNW) 20:51:18
UWE-3 25 Jun 20:34:59 20:38:45 33° 67° (ENE) 20:42:36 435.000/436.395/437.385
Oscar 11 25 Jun 20:37:41 20:41:22 27° 66° (ENE) 20:45:04 145.826/435.025
FUNcube-1 25 Jun 20:41:03 20:44:30 25° 65° (ENE) 20:48:02 145.935
Cosmos 2499 25 Jun 20:45:39 20:53:49 58° 286° (WNW) 21:02:32 435.465 / 435.565
AAUSAT CUBESAT 2 25 Jun 20:53:10 20:57:22 86° 78° (ENE) 21:01:36 437.432
CINEMA 3 25 Jun 20:58:54 21:02:38 32° 264° (W) 21:06:23 145.822/145.860
AUBIESAT-1 25 Jun 21:01:35 21:04:52 75° 251° (WSW) 21:08:13 437.475
CANX-2 25 Jun 21:10:48 21:14:21 25° 266° (W) 21:17:57 2200.000
CUBEBUG 2 25 Jun 21:16:47 21:20:55 65° 258° (WSW) 21:25:09 437.445
COMPASS 1 25 Jun 21:24:31 21:28:25 36° 263° (W) 21:32:21 437.405
HO-68 25 Jun 21:25:31 21:31:50 33° 265° (W) 21:38:13 435.675
DELFI C3 25 Jun 21:31:45 21:35:35 43° 71° (ENE) 21:39:26 145.870
CUTE 1.7 + AOD 2 25 Jun 21:32:12 21:35:09 18° 269° (W) 21:38:09 437.475
RS-15 25 Jun 21:36:46 21:49:09 88° 236° (SW) 22:01:29 29.354- 29.394
M-CUBED/EXP-1 PRIME 25 Jun 21:39:09 21:41:41 20° 259° (W) 21:44:14 437.505
PRISM 25 Jun 21:41:19 21:45:24 61° 102° (ESE) 21:49:25 437.425
SEEDS 25 Jun 21:41:52 21:44:56 19° 269° (W) 21:48:01 437.485
SO-50 25 Jun 21:45:22 21:46:13 10° 0° (N) 21:47:04 436.795
DANDE 25 Jun 21:49:36 21:50:35 11° 287° (WNW) 21:51:33 436.750
ZACube-1 25 Jun 21:57:04 22:01:10 52° 260° (W) 22:05:23 437.345
HUMSAT D 25 Jun 22:01:48 22:05:45 44° 70° (ENE) 22:09:48 437.325/437.525
AO-85 25 Jun 22:08:09 22:12:34 26° 114° (ESE) 22:16:54 145.980
STRAND 1 25 Jun 22:08:46 22:12:29 20° 301° (WNW) 22:16:12 437.568
UWE-3 25 Jun 22:11:46 22:15:17 26° 266° (W) 22:18:53 435.000/436.395/437.385
Oscar 11 25 Jun 22:13:27 22:17:25 34° 264° (W) 22:21:23 145.826/435.025
ANTELSAT 25 Jun 22:14:15 22:16:13 12° 87° (E) 22:18:13 437.575/2403.000
FUNcube-1 25 Jun 22:16:46 22:20:37 35° 264° (W) 22:24:34 145.935
VELOX 1 25 Jun 22:18:09 22:19:21 11° 55° (NE) 22:20:32 145.980
CUBEBUG 1 25 Jun 22:18:11 22:19:34 11° 56° (ENE) 22:20:55 437.445
AAUSAT CUBESAT 2 25 Jun 22:33:02 22:33:28 10° 274° (W) 22:33:55 437.432
ESTCUBE 1 25 Jun 22:38:41 22:42:23 25° 64° (ENE) 22:46:05 437.505/2401.250
GONETS M04 25 Jun 22:39:20 22:42:27 12° 315° (NW) 22:45:34
Cosmos 2499 25 Jun 22:44:36 22:49:17 15° 312° (NW) 22:54:06 435.465 / 435.565
YUBILEINY 25 Jun 22:46:47 22:53:17 22° 56° (ENE) 22:59:46 435.215
AISAT 25 Jun 22:55:48 22:59:22 25° 64° (ENE) 23:02:56 437.250
50 SAT 25 Jun 23:01:23 23:04:24 24° 66° (ENE) 23:07:26 437.505
TIGRISAT 25 Jun 23:05:04 23:09:19 36° 97° (E) 23:13:38 435.000
DELFI C3 25 Jun 23:07:46 23:10:39 19° 268° (W) 23:13:33 145.870
UNISAT 6 25 Jun 23:09:04 23:13:26 41° 98° (E) 23:17:52 437.425
UKube-1 25 Jun 23:13:00 23:16:24 23° 63° (ENE) 23:19:48 .
PRISM 25 Jun 23:17:49 23:20:15 15° 300° (WNW) 23:22:41 437.425
SPROUT 25 Jun 23:21:00 23:23:58 19° 62° (ENE) 23:26:56 437.525
SO-50 25 Jun 23:25:35 23:28:42 17° 25° (NNE) 23:31:45 436.795
DX 1 25 Jun 23:26:21 23:30:20 36° 67° (ENE) 23:34:19 434.975-435.025
HUMSAT D 25 Jun 23:38:35 23:41:37 19° 269° (W) 23:44:42 437.325/437.525
AO-85 25 Jun 23:47:26 23:52:48 62° 312° (NW) 23:57:55 145.980
ANTELSAT 25 Jun 23:48:53 23:53:31 84° 286° (WNW) 23:58:12 437.575/2403.000
RS-15 25 Jun 23:50:22 00:00:06 29° 258° (WSW) 00:09:48 29.354- 29.394
VELOX 1 25 Jun 23:50:39 23:55:03 78° 74° (ENE) 23:59:29 145.980
CUBEBUG 1 25 Jun 23:50:45 23:55:08 82° 76° (ENE) 23:59:30 437.445
Cosmos 2504 25 Jun 23:55:38 00:01:45 20° 54° (NE) 00:07:46 435.465 / 435.565
Cosmos 2491 26 Jun 00:01:33 00:07:54 23° 77° (ENE) 00:14:15 435.465 / 435.565
NANOSAT C BR1 26 Jun 00:01:53 00:05:23 24° 94° (E) 00:08:52 145.865
QB50P1 26 Jun 00:03:00 00:06:37 26° 95° (E) 00:10:12 145.935-145.965
POPSAT HIP 1 26 Jun 00:05:52 00:09:32 28° 95° (E) 00:13:12 437.405
ESTCUBE 1 26 Jun 00:14:42 00:19:00 41° 262° (W) 00:23:19 437.505/2401.250
QB50P2 26 Jun 00:17:11 00:21:11 38° 98° (E) 00:25:10 145.880/145.840
POLYITAN 1 26 Jun 00:19:47 00:23:48 39° 98° (E) 00:27:49 437.675
DUCHIFAT 1 26 Jun 00:23:40 00:27:37 38° 97° (E) 00:31:35 145.980
AISAT 26 Jun 00:31:31 00:35:40 40° 262° (W) 00:39:50 437.250
50 SAT 26 Jun 00:34:42 00:37:59 29° 264° (W) 00:41:18 437.505
TIGRISAT 26 Jun 00:41:56 00:45:55 29° 294° (WNW) 00:49:56 435.000
YUBILEINY 26 Jun 00:42:44 00:51:37 83° 81° (E) 01:00:29 435.215
UNISAT 6 26 Jun 00:46:10 00:49:58 26° 295° (WNW) 00:53:50 437.425
UKube-1 26 Jun 00:48:08 00:52:13 42° 261° (W) 00:56:21 .
TISAT 1 26 Jun 00:51:20 00:55:14 41° 69° (ENE) 00:59:10 437.305
SPROUT 26 Jun 00:55:26 00:59:34 52° 260° (W) 01:03:45 437.525
DX 1 26 Jun 01:02:59 01:06:37 25° 265° (W) 01:10:14 434.975-435.025
SO-50 26 Jun 01:05:29 01:10:11 59° 47° (NE) 01:14:42 436.795
ANTELSAT 26 Jun 01:27:33 01:29:32 13° 303° (WNW) 01:31:30 437.575/2403.000
SWISSCUBE 26 Jun 01:28:47 01:32:48 27° 63° (ENE) 01:36:50 437.505
VELOX 1 26 Jun 01:30:12 01:32:05 12° 272° (W) 01:33:58 145.980
AO-85 26 Jun 01:30:33 01:34:15 19° 333° (NNW) 01:37:49 145.980
CUBEBUG 1 26 Jun 01:30:35 01:32:00 11° 273° (W) 01:33:25 437.445
BUGSAT 1 26 Jun 01:32:06 01:36:13 86° 279° (W) 01:40:19 437.445
NANOSAT C BR1 26 Jun 01:37:19 01:41:12 36° 292° (WNW) 01:45:05 145.865
QB50P1 26 Jun 01:38:36 01:42:26 34° 292° (WNW) 01:46:16 145.935-145.965
POPSAT HIP 1 26 Jun 01:41:33 01:45:20 32° 293° (WNW) 01:49:08 437.405
JAS-2 26 Jun 01:43:47 01:49:37 57° 100° (E) 01:54:52 435.910
Cosmos 2504 26 Jun 01:47:59 01:56:57 73° 78° (ENE) 02:05:38 435.465 / 435.565
ITUPSAT 1 26 Jun 01:52:56 01:57:23 39° 67° (ENE) 02:01:51 437.325
QB50P2 26 Jun 01:53:23 01:56:49 24° 296° (WNW) 02:00:14 145.880/145.840
BEESAT 26 Jun 01:53:53 01:58:20 40° 67° (ENE) 02:02:49 436.000
Cosmos 2491 26 Jun 01:54:50 02:03:38 86° 279° (W) 02:12:26 435.465 / 435.565
Gurwin Techsat 1B 26 Jun 01:55:52 01:58:31 14° 87° (E) 02:01:10 435.225
POLYITAN 1 26 Jun 01:56:01 01:59:25 24° 296° (WNW) 02:02:50 437.675
DUCHIFAT 1 26 Jun 01:59:44 02:03:09 24° 295° (WNW) 02:06:33 145.980
Oscar 19 26 Jun 02:01:17 02:05:51 32° 95° (E) 02:10:24 437.125/150
TISAT 1 26 Jun 02:27:54 02:31:05 21° 267° (W) 02:34:16 437.305
YUBILEINY 26 Jun 02:40:45 02:47:23 25° 282° (WNW) 02:54:01 435.215
SO-50 26 Jun 02:46:43 02:50:15 22° 247° (WSW) 02:53:42 436.795
MOZHAYETS 4 26 Jun 02:59:52 03:03:25 22° 62° (ENE) 03:06:59
SWISSCUBE 26 Jun 03:05:52 03:10:24 42° 261° (W) 03:15:00 437.505
BUGSAT 1 26 Jun 03:10:00 03:10:56 11° 303° (WNW) 03:11:51 437.445
BEESAT 3 26 Jun 03:10:14 03:13:00 19° 114° (ESE) 03:15:48 437.485
AO-85 26 Jun 03:15:32 03:16:43 11° 357° (N) 03:17:54 145.980
O/OREOS (USA 219) 26 Jun 03:17:12 03:21:03 28° 105° (ESE) 03:24:53 437.305
PCSat 26 Jun 03:24:27 03:29:46 60° 119° (ESE) 03:35:08 145.827
JAS-2 26 Jun 03:29:30 03:34:16 26° 302° (WNW) 03:38:40 435.910
KKS-1 26 Jun 03:29:46 03:33:58 45° 69° (ENE) 03:38:12 437.445
ITUPSAT 1 26 Jun 03:31:10 03:35:18 28° 265° (W) 03:39:29 437.325
BEESAT 26 Jun 03:32:10 03:36:14 27° 265° (W) 03:40:20 436.000
Gurwin Techsat 1B 26 Jun 03:33:52 03:39:14 90° 101° (E) 03:44:34 435.225
Oscar 19 26 Jun 03:40:31 03:45:14 38° 294° (WNW) 03:49:57 437.125/150
BEESAT 2 26 Jun 03:41:56 03:45:03 22° 115° (ESE) 03:48:11 435.950
Cosmos 2504 26 Jun 03:42:16 03:49:34 30° 280° (W) 03:56:44 435.465 / 435.565
Cosmos 2491 26 Jun 03:55:20 04:01:54 23° 303° (WNW) 04:08:29 435.465 / 435.565
ITAMSAT 1 26 Jun 03:56:16 04:01:26 56° 101° (E) 04:06:34 435.822/435.867
STARS 26 Jun 04:09:39 04:13:56 59° 71° (ENE) 04:18:14 437.465
CUBESAT XI-V 26 Jun 04:19:59 04:23:17 19° 61° (ENE) 04:26:34 437.345
MOZHAYETS 4 26 Jun 04:35:47 04:40:16 50° 261° (W) 04:44:49
AO-7 26 Jun 04:39:08 04:47:17 51° 101° (E) 04:55:22 29.400- 29.500
Cosmos 2499 26 Jun 04:40:35 04:46:28 19° 53° (NE) 04:52:12 435.465 / 435.565
GONETS M04 26 Jun 04:43:38 04:50:45 27° 60° (ENE) 04:57:50
HORYU 2 26 Jun 04:45:05 04:46:19 11° 87° (E) 04:47:32 437.375
BEESAT 3 26 Jun 04:46:30 04:50:21 52° 313° (NW) 04:54:15 437.485
AIST 1 26 Jun 04:52:58 04:57:15 77° 80° (E) 05:01:30
O/OREOS (USA 219) 26 Jun 04:56:10 05:00:20 36° 304° (WNW) 05:04:31 437.305
AO-85 26 Jun 04:56:24 04:59:18 16° 22° (NNE) 05:02:04 145.980
KKS-1 26 Jun 05:07:22 05:10:46 21° 267° (W) 05:14:10 437.445
PCSat 26 Jun 05:08:47 05:13:33 30° 319° (NW) 05:18:19 145.827
Gurwin Techsat 1B 26 Jun 05:15:14 05:18:28 16° 305° (NW) 05:21:41 435.225
BEESAT 2 26 Jun 05:18:49 05:22:39 45° 314° (NW) 05:26:31 435.950
ITAMSAT 1 26 Jun 05:36:24 05:40:34 25° 300° (WNW) 05:44:43 435.822/435.867
AIST 2 26 Jun 05:38:14 05:41:26 22° 114° (ESE) 05:44:39 435.215
STARS 26 Jun 05:47:58 05:50:41 16° 270° (W) 05:53:24 437.465
CUBESAT XI-V 26 Jun 05:55:35 06:00:14 61° 259° (W) 06:04:55 437.345
STRAND 1 26 Jun 06:10:26 06:14:18 22° 59° (ENE) 06:18:10 437.568
CUTE-I 26 Jun 06:17:28 06:20:48 16° 88° (E) 06:24:06 437.470
HORYU 2 26 Jun 06:19:00 06:23:31 89° 292° (WNW) 06:28:01 437.375
BEESAT 3 26 Jun 06:27:08 06:28:56 13° 334° (NNW) 06:30:43 437.485
AO-7 26 Jun 06:32:10 06:39:59 45° 302° (WNW) 06:47:46 29.400- 29.500
Cosmos 2499 26 Jun 06:32:36 06:41:31 70° 77° (ENE) 06:49:57 435.465 / 435.565
AIST 1 26 Jun 06:33:00 06:34:11 11° 278° (W) 06:35:22
AO-85 26 Jun 06:36:20 06:40:56 51° 46° (NE) 06:45:08 145.980
GONETS M04 26 Jun 06:39:55 06:48:39 81° 264° (W) 06:57:24
NOAA 18 26 Jun 06:53:16 06:58:19 35° 97° (E) 07:03:20 137.9125
NOAA 15 26 Jun 06:53:40 06:58:41 43° 98° (E) 07:03:38 137.62
PCSat 26 Jun 06:56:55 06:58:48 12° 344° (NNW) 07:00:42 145.827
BEESAT 2 26 Jun 06:59:57 07:01:29 12° 335° (NNW) 07:03:00 435.950
BRITE-PL 26 Jun 07:10:32 07:14:41 58° 100° (E) 07:18:47 437.365/2234.400
AIST 2 26 Jun 07:15:38 07:19:38 49° 313° (NW) 07:23:41 435.215
LilacSat-2 26 Jun 07:20:42 07:24:32 56° 100° (E) 07:28:21 437.200
Cubesat XI-IV 26 Jun 07:20:49 07:26:07 54° 100° (E) 07:31:23 437.490
DANDE 26 Jun 07:31:03 07:37:07 23° 82° (E) 07:42:54 436.750
CUSAT 1 26 Jun 07:32:32 07:39:32 38° 91° (E) 07:45:37 437.405
DOVE 4 26 Jun 07:34:19 07:37:46 23° 94° (E) 07:41:18 437.250
STRAND 1 26 Jun 07:47:57 07:53:03 62° 258° (WSW) 07:58:11 437.568
CUTE-I 26 Jun 07:56:04 08:01:29 79° 287° (WNW) 08:06:51 437.470
HORYU 2 26 Jun 07:57:22 07:59:24 13° 303° (WNW) 08:01:26 437.375
GOMX 1 26 Jun 07:57:51 08:02:02 83° 102° (ESE) 08:06:19 467.674
AO-85 26 Jun 08:17:27 08:21:03 23° 247° (WSW) 08:24:23 145.980
Cosmos 2499 26 Jun 08:26:35 08:33:55 31° 279° (W) 08:40:59 435.465 / 435.565
AO-7 26 Jun 08:26:43 08:30:41 14° 326° (NW) 08:34:39 29.400- 29.500
PRISM 26 Jun 08:33:35 08:37:44 70° 74° (ENE) 08:41:53 437.425
NOAA 15 26 Jun 08:33:46 08:38:19 31° 297° (WNW) 08:42:51 137.62
NOAA 18 26 Jun 08:33:53 08:39:02 40° 295° (WNW) 08:44:11 137.9125
AAUSAT CUBESAT 2 26 Jun 08:34:30 08:35:36 11° 87° (E) 08:36:43 437.432
GONETS M04 26 Jun 08:38:34 08:44:04 19° 286° (WNW) 08:49:34
PCSat 26 Jun 08:43:54 08:44:53 10° 11° (N) 08:45:51 145.827
HO-68 26 Jun 08:48:12 08:55:01 43° 98° (E) 09:01:47 435.675
CINEMA 3 26 Jun 08:48:52 08:53:07 42° 98° (E) 08:57:33 145.822/145.860
BRITE-PL 26 Jun 08:50:15 08:52:46 16° 300° (WNW) 08:55:16 437.365/2234.400
CANX-2 26 Jun 08:51:32 08:55:40 44° 98° (E) 08:59:46 2200.000
LilacSat-2 26 Jun 08:56:11 08:58:26 15° 298° (WNW) 09:00:41 437.200
AIST 2 26 Jun 08:57:10 08:59:07 13° 335° (NNW) 09:01:03 435.215
Cubesat XI-IV 26 Jun 09:01:29 09:05:53 26° 299° (WNW) 09:10:15 437.490
COMPASS 1 26 Jun 09:03:55 09:07:32 27° 94° (E) 09:11:08 437.405
CUBEBUG 2 26 Jun 09:04:17 09:07:48 22° 92° (E) 09:11:23 437.445
DANDE 26 Jun 09:10:42 09:19:10 88° 97° (E) 09:27:00 436.750
DOVE 4 26 Jun 09:11:41 09:15:36 38° 290° (WNW) 09:19:41 437.250
CUTE 1.7 + AOD 2 26 Jun 09:11:59 09:16:16 63° 101° (E) 09:20:30 437.475
CUSAT 1 26 Jun 09:13:58 09:21:32 52° 286° (WNW) 09:27:56 437.405
M-CUBED/EXP-1 PRIME 26 Jun 09:14:28 09:16:17 13° 97° (E) 09:18:08 437.505
ANTELSAT 26 Jun 09:16:19 09:19:02 17° 60° (ENE) 09:21:48 437.575/2403.000
SEEDS 26 Jun 09:20:49 09:25:02 57° 100° (E) 09:29:12 437.485
CUTE-I 26 Jun 09:37:49 09:40:41 15° 306° (NW) 09:43:34 437.470
GOMX 1 26 Jun 09:38:02 09:39:35 12° 301° (WNW) 09:41:08 467.674
ZACube-1 26 Jun 09:42:01 09:45:42 24° 93° (E) 09:49:25 437.345
BEESAT 3 26 Jun 09:47:21 09:48:06 10° 22° (NNE) 09:48:51 437.485
PHONESAT 2.4 26 Jun 09:51:56 09:54:12 19° 171° (S) 09:56:29 2401.200-2431.200
UWE-3 26 Jun 09:56:39 10:01:04 48° 99° (E) 10:05:32 435.000/436.395/437.385
Oscar 11 26 Jun 09:56:53 10:00:53 33° 96° (E) 10:04:50 145.826/435.025
FUNcube-1 26 Jun 10:00:46 10:04:53 34° 96° (E) 10:09:02 145.935
Cosmos 2491 26 Jun 10:05:59 10:10:28 15° 48° (NE) 10:14:55 435.465 / 435.565
TIGRISAT 26 Jun 10:07:00 10:11:05 44° 70° (ENE) 10:15:17 435.000
AAUSAT CUBESAT 2 26 Jun 10:07:28 10:11:41 80° 284° (WNW) 10:15:50 437.432
AUBIESAT-1 26 Jun 10:10:21 10:13:59 41° 105° (ESE) 10:17:51 437.475
UNISAT 6 26 Jun 10:11:09 10:15:19 52° 71° (ENE) 10:19:37 437.425
PRISM 26 Jun 10:11:42 10:13:31 13° 271° (W) 10:15:21 437.425
BEESAT 2 26 Jun 10:19:33 10:20:59 12° 24° (NNE) 10:22:25 435.950
JAS-2 26 Jun 10:19:37 10:21:09 11° 45° (NE) 10:22:40 435.910
PCSat 26 Jun 10:26:01 10:30:24 24° 36° (NE) 10:34:45 145.827
CINEMA 3 26 Jun 10:26:30 10:30:05 24° 295° (WNW) 10:33:47 145.822/145.860
ISS 26 Jun 10:26:37 10:29:36 34° 145° (SE) 10:32:37 145.825
CANX-2 26 Jun 10:27:58 10:31:16 22° 296° (WNW) 10:34:32 2200.000
HO-68 26 Jun 10:36:01 10:42:47 46° 298° (WNW) 10:49:32 435.675
COMPASS 1 26 Jun 10:39:22 10:43:07 31° 292° (WNW) 10:46:49 437.405
CUBEBUG 2 26 Jun 10:40:17 10:44:39 48° 289° (WNW) 10:49:07 437.445
DELFI C3 26 Jun 10:40:39 10:44:32 44° 99° (E) 10:48:20 145.870
M-CUBED/EXP-1 PRIME 26 Jun 10:47:25 10:51:07 63° 292° (WNW) 10:55:06 437.505
CUTE 1.7 + AOD 2 26 Jun 10:48:59 10:51:38 16° 299° (WNW) 10:54:17 437.475
ANTELSAT 26 Jun 10:51:00 10:55:16 63° 259° (WSW) 10:59:40 437.575/2403.000
BUGSAT 1 26 Jun 10:52:33 10:54:06 12° 58° (ENE) 10:55:39 437.445
DANDE 26 Jun 10:56:04 11:02:50 26° 298° (WNW) 11:09:08 436.750
NANOSAT C BR1 26 Jun 10:57:14 11:00:49 28° 66° (ENE) 11:04:25 145.865
SEEDS 26 Jun 10:57:32 11:00:20 17° 298° (WNW) 11:03:06 437.485
QB50P1 26 Jun 10:58:38 11:02:18 30° 67° (ENE) 11:06:01 145.935-145.965
POPSAT HIP 1 26 Jun 11:01:33 11:05:15 32° 67° (ENE) 11:09:01 437.405
CUSAT 1 26 Jun 11:02:21 11:04:52 12° 305° (NW) 11:07:14 437.405
QB50P2 26 Jun 11:12:53 11:16:52 44° 70° (ENE) 11:20:53 145.880/145.840
POLYITAN 1 26 Jun 11:15:30 11:19:29 45° 70° (ENE) 11:23:31 437.675
HUMSAT D 26 Jun 11:17:01 11:21:16 53° 100° (E) 11:25:29 437.325/437.525
ZACube-1 26 Jun 11:17:53 11:22:08 41° 291° (WNW) 11:26:26 437.345
DUCHIFAT 1 26 Jun 11:18:37 11:22:34 43° 70° (ENE) 11:26:32 145.980
BEESAT 3 26 Jun 11:23:10 11:26:53 37° 44° (NE) 11:30:35 437.485
PHONESAT 2.4 26 Jun 11:27:58 11:30:16 19° 188° (S) 11:32:34 2401.200-2431.200
Oscar 11 26 Jun 11:33:11 11:36:55 28° 294° (WNW) 11:40:38 145.826/435.025
UWE-3 26 Jun 11:33:44 11:37:15 23° 296° (WNW) 11:40:49 435.000/436.395/437.385
FUNcube-1 26 Jun 11:37:08 11:41:03 30° 294° (WNW) 11:45:00 145.935
CUBEBUG 1 26 Jun 11:37:59 11:39:34 12° 88° (E) 11:41:08 437.445
VELOX 1 26 Jun 11:39:36 11:40:59 11° 87° (E) 11:42:20 145.980
O/OREOS (USA 219) 26 Jun 11:44:44 11:47:32 16° 45° (NE) 11:50:19 437.305
TIGRISAT 26 Jun 11:44:49 11:48:02 20° 268° (W) 11:51:19 435.000
AUBIESAT-1 26 Jun 11:45:25 11:48:18 21° 300° (WNW) 11:51:18 437.475
AAUSAT CUBESAT 2 26 Jun 11:45:50 11:46:25 10° 303° (WNW) 11:47:01 437.432
Oscar 19 26 Jun 11:46:18 11:47:58 12° 52° (NE) 11:49:39 437.125/150
UNISAT 6 26 Jun 11:49:28 11:52:23 18° 269° (W) 11:55:23 437.425
YUBILEINY 26 Jun 11:54:53 12:00:35 20° 75° (ENE) 12:06:19 435.215
BEESAT 2 26 Jun 11:55:59 11:59:50 43° 46° (NE) 12:03:39 435.950
JAS-2 26 Jun 11:57:36 12:04:40 44° 65° (ENE) 12:11:08 435.910
50 SAT 26 Jun 12:00:39 12:03:15 18° 92° (E) 12:05:51 437.505
Cosmos 2491 26 Jun 12:01:03 12:09:39 58° 74° (ENE) 12:18:11 435.465 / 435.565
ISS 26 Jun 12:02:44 12:05:58 58° 344° (NNW) 12:09:12 145.825
ESTCUBE 1 26 Jun 12:03:41 12:07:44 31° 96° (E) 12:11:44 437.505/2401.250
RS-15 26 Jun 12:04:28 12:14:51 43° 109° (ESE) 12:25:45 29.354- 29.394
PCSat 26 Jun 12:09:00 12:14:28 84° 237° (WSW) 12:19:53 145.827
DELFI C3 26 Jun 12:16:13 12:19:06 19° 297° (WNW) 12:21:57 145.870
AISAT 26 Jun 12:18:10 12:22:00 29° 95° (E) 12:25:49 437.250
AIST 2 26 Jun 12:18:10 12:19:58 12° 24° (NNE) 12:21:44 435.215
BUGSAT 1 26 Jun 12:24:53 12:28:54 80° 256° (WSW) 12:32:56 437.445
HO-68 26 Jun 12:26:16 12:28:46 12° 320° (NW) 12:31:17 435.675
UKube-1 26 Jun 12:31:58 12:35:31 24° 94° (E) 12:39:01 .
NANOSAT C BR1 26 Jun 12:32:47 12:36:30 31° 264° (W) 12:40:15 145.865
QB50P1 26 Jun 12:34:26 12:38:05 28° 265° (W) 12:41:45 145.935-145.965
POPSAT HIP 1 26 Jun 12:37:30 12:41:04 27° 265° (W) 12:44:40 437.405
SPROUT 26 Jun 12:38:25 12:41:40 21° 92° (E) 12:44:55 437.525
Cosmos 2504 26 Jun 12:44:26 12:46:21 11° 67° (ENE) 12:48:18 435.465 / 435.565
DX 1 26 Jun 12:46:50 12:50:57 41° 99° (E) 12:55:03 434.975-435.025
QB50P2 26 Jun 12:49:48 12:52:54 20° 268° (W) 12:56:01 145.880/145.840
POLYITAN 1 26 Jun 12:52:29 12:55:32 19° 268° (W) 12:58:35 437.675
HUMSAT D 26 Jun 12:53:30 12:56:32 19° 298° (WNW) 12:59:33 437.325/437.525
DUCHIFAT 1 26 Jun 12:55:23 12:58:29 20° 268° (W) 13:01:35 145.980
BEESAT 3 26 Jun 13:01:04 13:04:29 28° 243° (WSW) 13:07:52 437.485
CUBEBUG 1 26 Jun 13:12:04 13:16:25 79° 285° (WNW) 13:20:43 437.445
VELOX 1 26 Jun 13:13:38 13:18:03 84° 284° (WNW) 13:22:26 145.980
Gurwin Techsat 1B 26 Jun 13:19:28 13:24:06 31° 63° (ENE) 13:28:44 435.225
Oscar 19 26 Jun 13:21:15 13:26:20 65° 72° (ENE) 13:31:27 437.125/150
O/OREOS (USA 219) 26 Jun 13:23:03 13:27:33 83° 246° (WSW) 13:32:03 437.305
50 SAT 26 Jun 13:33:38 13:37:06 37° 290° (WNW) 13:40:32 437.505
BEESAT 2 26 Jun 13:34:14 13:37:27 23° 245° (WSW) 13:40:39 435.950
ISS 26 Jun 13:39:38 13:42:45 40° 3° (N) 13:45:53 145.825
ITAMSAT 1 26 Jun 13:40:12 13:43:55 20° 58° (ENE) 13:47:38 435.822/435.867
ESTCUBE 1 26 Jun 13:40:31 13:44:31 31° 294° (WNW) 13:48:28 437.505/2401.250
JAS-2 26 Jun 13:42:19 13:49:38 47° 262° (W) 13:56:23 435.910
YUBILEINY 26 Jun 13:47:18 13:56:01 84° 97° (E) 14:04:49 435.215
AO-7 26 Jun 13:51:38 13:58:07 26° 47° (NE) 14:04:38 29.400- 29.500
PCSat 26 Jun 13:54:19 13:57:01 14° 257° (WSW) 13:59:42 145.827
AISAT 26 Jun 13:54:34 13:58:30 33° 293° (WNW) 14:02:25 437.250
AIST 2 26 Jun 13:55:27 13:59:28 45° 46° (NE) 14:03:28 435.215
Cosmos 2491 26 Jun 13:58:26 14:06:07 37° 276° (W) 14:13:46 435.465 / 435.565
TISAT 1 26 Jun 14:07:05 14:11:08 45° 99° (E) 14:15:10 437.305
UKube-1 26 Jun 14:07:40 14:11:40 38° 292° (WNW) 14:15:39 .
SPROUT 26 Jun 14:13:46 14:17:49 43° 290° (WNW) 14:21:52 437.525
RS-15 26 Jun 14:15:09 14:26:42 70° 315° (NW) 14:38:55 29.354- 29.394
DX 1 26 Jun 14:23:29 14:26:56 23° 297° (WNW) 14:30:21 434.975-435.025
Cosmos 2504 26 Jun 14:29:42 14:37:32 54° 89° (E) 14:45:54 435.465 / 435.565
CUBEBUG 1 26 Jun 14:50:59 14:51:57 11° 304° (NW) 14:52:54 437.445
VELOX 1 26 Jun 14:52:15 14:53:48 12° 304° (NW) 14:55:22 145.980
Gurwin Techsat 1B 26 Jun 14:58:53 15:03:54 42° 262° (W) 15:08:58 435.225
SWISSCUBE 26 Jun 15:02:22 15:06:51 38° 97° (E) 15:11:17 437.505
Oscar 19 26 Jun 15:02:33 15:06:08 19° 270° (W) 15:09:44 437.125/150
ISS 26 Jun 15:16:10 15:19:27 85° 22° (NNE) 15:22:44 145.825
ITAMSAT 1 26 Jun 15:17:39 15:22:51 71° 257° (WSW) 15:28:07 435.822/435.867
